HZ102 OEMA-OEYN

Flight info

Callsign HZ102
Flight time N/A
Altitude 16000
Route UKTOM V22 YEN
Aircraft B738/M-SDE2E3FGHIRWXY/LB1

Departure

Time 2026-04-17 13:02
Airport Prince Mohammad Bin Abdulaziz Airport (OEMA)

Arrival

Time N/A
Airport Prince Abdulmohsen Bin Abdulaziz International Airport (OEYN)
Time Latitude Longitude Altitude Speed Heading
2026-04-17 12:45 24.55411 39.69635 2105 ft 0 kts 240°
2026-04-17 12:54 24.55419 39.69650 2104 ft 4 kts 237°
2026-04-17 12:54 24.55435 39.69673 2104 ft 4 kts 229°
2026-04-17 12:54 24.55454 39.69694 2104 ft 4 kts 213°
2026-04-17 12:54 24.55477 39.69705 2105 ft 4 kts 172°
2026-04-17 12:55 24.55486 39.69703 2105 ft 0 kts 150°
2026-04-17 12:56 24.55479 39.69707 2105 ft 3 kts 150°
2026-04-17 12:56 24.55441 39.69729 2104 ft 9 kts 152°
2026-04-17 12:57 24.55369 39.69773 2104 ft 15 kts 152°
2026-04-17 12:57 24.55267 39.69835 2104 ft 19 kts 151°
2026-04-17 12:57 24.55138 39.69914 2104 ft 23 kts 150°
2026-04-17 12:57 24.54985 39.70007 2104 ft 26 kts 151°
2026-04-17 12:58 24.54874 39.70088 2104 ft 17 kts 121°
2026-04-17 12:58 24.54926 39.70183 2106 ft 19 kts
2026-04-17 12:58 24.55073 39.70195 2108 ft 24 kts
2026-04-17 12:58 24.55256 39.70208 2107 ft 29 kts
2026-04-17 12:59 24.55472 39.70225 2107 ft 33 kts
2026-04-17 12:59 24.55715 39.70243 2107 ft 37 kts
2026-04-17 12:59 24.55969 39.70261 2107 ft 36 kts
2026-04-17 12:59 24.56215 39.70279 2107 ft 34 kts
2026-04-17 13:00 24.56444 39.70267 2106 ft 33 kts 349°
2026-04-17 13:00 24.56662 39.70221 2104 ft 32 kts 349°
2026-04-17 13:00 24.56873 39.70176 2106 ft 29 kts 348°
2026-04-17 13:00 24.57063 39.70135 2104 ft 25 kts 350°
2026-04-17 13:01 24.57155 39.70188 2105 ft 16 kts 75°
2026-04-17 13:01 24.57175 39.70303 2107 ft 15 kts 79°
2026-04-17 13:01 24.57187 39.70416 2109 ft 15 kts 116°
2026-04-17 13:01 24.57087 39.70452 2109 ft 21 kts 169°
2026-04-17 13:02 24.56739 39.70525 2110 ft 85 kts 169°
2026-04-17 13:02 24.55953 39.70692 2112 ft 142 kts 168°
2026-04-17 13:02 24.54920 39.70936 2514 ft 158 kts 172°
2026-04-17 13:02 24.53794 39.71176 3189 ft 167 kts 175°
2026-04-17 13:03 24.52606 39.71418 3712 ft 177 kts 173°
2026-04-17 13:03 24.51338 39.71675 4066 ft 202 kts 173°
2026-04-17 13:03 24.49856 39.71977 4258 ft 227 kts 173°
2026-04-17 13:03 24.48229 39.72314 4505 ft 247 kts 173°
2026-04-17 13:04 24.46490 39.72676 4798 ft 266 kts 173°
2026-04-17 13:04 24.44633 39.73065 5394 ft 274 kts 172°
2026-04-17 13:04 24.42757 39.73458 6295 ft 271 kts 173°
2026-04-17 13:04 24.40900 39.73845 7004 ft 276 kts 172°
2026-04-17 13:05 24.39015 39.74237 7826 ft 277 kts 172°
2026-04-17 13:05 24.37101 39.74362 8613 ft 277 kts 192°
2026-04-17 13:05 24.35319 39.73579 9447 ft 279 kts 215°
2026-04-17 13:05 24.33961 39.72062 10239 ft 283 kts 236°
2026-04-17 13:06 24.33147 39.70025 10684 ft 307 kts 257°
2026-04-17 13:06 24.32800 39.67630 10991 ft 329 kts 261°
2026-04-17 13:06 24.32521 39.65108 11643 ft 336 kts 262°
2026-04-17 13:06 24.32248 39.62541 12472 ft 340 kts 262°
2026-04-17 13:07 24.31965 39.59970 13462 ft 337 kts 262°
2026-04-17 13:07 24.31672 39.57415 14404 ft 335 kts 261°
2026-04-17 13:07 24.31375 39.54906 15398 ft 335 kts 262°
2026-04-17 13:07 24.31074 39.52403 15766 ft 324 kts 261°
2026-04-17 13:08 24.30877 39.50776 15876 ft 330 kts 261°
2026-04-17 13:08 24.30559 39.48189 15903 ft 353 kts 261°
2026-04-17 13:08 24.30224 39.45457 15906 ft 368 kts 261°
2026-04-17 13:08 24.29881 39.42669 15903 ft 368 kts 261°
2026-04-17 13:09 24.29540 39.39893 15896 ft 369 kts 261°
2026-04-17 13:09 24.29305 39.37091 15891 ft 368 kts 269°
2026-04-17 13:09 24.29479 39.34287 15906 ft 368 kts 274°
2026-04-17 13:09 24.29744 39.31525 15895 ft 363 kts 274°
2026-04-17 13:10 24.30019 39.28770 15897 ft 366 kts 275°
2026-04-17 13:10 24.30289 39.25975 15896 ft 366 kts 274°
2026-04-17 13:10 24.30544 39.23191 15902 ft 371 kts 274°
2026-04-17 13:10 24.30790 39.20386 15884 ft 369 kts 273°
2026-04-17 13:11 24.31026 39.17618 15885 ft 366 kts 274°
2026-04-17 13:11 24.31258 39.14835 15889 ft 366 kts 273°
2026-04-17 13:11 24.31486 39.12065 15867 ft 361 kts 273°
2026-04-17 13:11 24.31711 39.09316 15869 ft 363 kts 273°
2026-04-17 13:12 24.31933 39.06574 15858 ft 360 kts 274°
2026-04-17 13:12 24.32358 39.01332 15665 ft 334 kts 273°
2026-04-17 13:12 24.32564 38.98775 15046 ft 340 kts 273°
2026-04-17 13:13 24.32771 38.96187 14539 ft 343 kts 273°
2026-04-17 13:13 24.32981 38.93587 14170 ft 342 kts 273°
2026-04-17 13:13 24.33193 38.90956 13660 ft 352 kts 273°
2026-04-17 13:13 24.33407 38.88274 13077 ft 352 kts 273°
2026-04-17 13:14 24.33616 38.85616 12532 ft 348 kts 274°
2026-04-17 13:14 24.33825 38.83016 11978 ft 345 kts 272°
2026-04-17 13:14 24.33611 38.80434 11405 ft 341 kts 254°
2026-04-17 13:14 24.32987 38.77920 10815 ft 341 kts 253°
2026-04-17 13:15 24.32366 38.75443 10480 ft 334 kts 252°
2026-04-17 13:15 24.31761 38.73003 10163 ft 330 kts 253°
2026-04-17 13:15 24.31169 38.70588 9866 ft 328 kts 253°
2026-04-17 13:15 24.30581 38.68158 9557 ft 328 kts 253°
2026-04-17 13:16 24.30002 38.65757 9253 ft 325 kts 252°
2026-04-17 13:16 24.29430 38.63378 8944 ft 324 kts 253°
2026-04-17 13:16 24.28857 38.60984 8635 ft 323 kts 253°
2026-04-17 13:16 24.28288 38.58614 8351 ft 318 kts 253°
2026-04-17 13:17 24.27734 38.56304 8055 ft 307 kts 253°
2026-04-17 13:17 24.27202 38.54084 7755 ft 294 kts 252°
2026-04-17 13:17 24.26695 38.51971 7483 ft 280 kts 253°
2026-04-17 13:17 24.26213 38.49964 7220 ft 268 kts 252°
2026-04-17 13:18 24.25747 38.48025 6995 ft 256 kts 251°
2026-04-17 13:18 24.25307 38.46195 6729 ft 241 kts 252°
2026-04-17 13:18 24.24887 38.44454 6483 ft 232 kts 252°
2026-04-17 13:18 24.24481 38.42770 6251 ft 225 kts 251°
2026-04-17 13:19 24.24088 38.41138 5997 ft 219 kts 250°
2026-04-17 13:19 24.23686 38.39533 5751 ft 220 kts 250°
2026-04-17 13:19 24.23275 38.37910 5535 ft 221 kts 249°
2026-04-17 13:19 24.22868 38.36300 5327 ft 221 kts 249°
2026-04-17 13:20 24.22450 38.34651 5112 ft 223 kts 250°
2026-04-17 13:20 24.22036 38.33030 4886 ft 220 kts 247°
2026-04-17 13:20 24.21237 38.31661 4632 ft 212 kts 216°
2026-04-17 13:20 24.19950 38.30960 4386 ft 205 kts 195°
2026-04-17 13:21 24.18539 38.30866 4145 ft 204 kts 177°
2026-04-17 13:21 24.17129 38.31027 3924 ft 204 kts 176°
2026-04-17 13:21 24.15717 38.31134 3682 ft 204 kts 178°
2026-04-17 13:21 24.14303 38.31168 3445 ft 203 kts 181°
2026-04-17 13:22 24.12907 38.31105 3207 ft 197 kts 185°
2026-04-17 13:22 24.11598 38.30853 3074 ft 189 kts 201°
2026-04-17 13:22 24.10572 38.29960 3046 ft 188 kts 225°
2026-04-17 13:22 24.10001 38.28690 3033 ft 195 kts 254°
2026-04-17 13:23 24.10129 38.27178 3035 ft 204 kts 271°
2026-04-17 13:23 24.10349 38.25636 3005 ft 207 kts 272°
2026-04-17 13:23 24.10632 38.24091 2808 ft 206 kts 275°
2026-04-17 13:23 24.10946 38.22593 2556 ft 197 kts 277°
2026-04-17 13:24 24.11253 38.21166 2315 ft 190 kts 277°
2026-04-17 13:24 24.11546 38.19794 2076 ft 180 kts 276°
2026-04-17 13:24 24.11821 38.18506 1863 ft 169 kts 276°
2026-04-17 13:24 24.12084 38.17265 1669 ft 166 kts 278°
2026-04-17 13:25 24.12348 38.16020 1444 ft 169 kts 279°
2026-04-17 13:25 24.12616 38.14774 1218 ft 167 kts 276°
2026-04-17 13:25 24.12873 38.13572 996 ft 156 kts 277°
2026-04-17 13:25 24.13114 38.12454 859 ft 146 kts 277°
2026-04-17 13:26 24.13338 38.11379 677 ft 141 kts 277°
2026-04-17 13:26 24.13570 38.10316 490 ft 146 kts 279°
2026-04-17 13:26 24.13797 38.09239 319 ft 144 kts 277°
2026-04-17 13:26 24.14023 38.08184 125 ft 141 kts 279°
2026-04-17 13:27 24.14243 38.07172 48 ft 129 kts 277°
2026-04-17 13:27 24.14433 38.06269 38 ft 127 kts 282°
2026-04-17 13:27 24.14718 38.05075 464 ft 184 kts 284°
2026-04-17 13:27 24.15050 38.03716 1585 ft 192 kts 279°
2026-04-17 13:28 24.15469 38.02222 2192 ft 207 kts 281°
2026-04-17 13:28 24.15914 38.00775 2711 ft 205 kts 280°
2026-04-17 13:28 24.16353 37.99151 2850 ft 239 kts 278°
2026-04-17 13:28 24.16832 37.97338 2942 ft 251 kts 278°
2026-04-17 13:29 24.17254 37.95492 2956 ft 247 kts 267°
2026-04-17 13:29 24.16969 37.93702 2997 ft 235 kts 236°
2026-04-17 13:29 24.15931 37.92429 3001 ft 222 kts 206°
2026-04-17 13:29 24.14504 37.91799 3003 ft 222 kts 195°
2026-04-17 13:30 24.13028 37.91310 3005 ft 219 kts 194°
2026-04-17 13:30 24.11575 37.90854 3012 ft 217 kts 194°
2026-04-17 13:30 24.10127 37.90404 3001 ft 215 kts 194°
2026-04-17 13:30 24.08667 37.90168 3008 ft 213 kts 175°
2026-04-17 13:31 24.07208 37.90366 3010 ft 214 kts 174°
2026-04-17 13:31 24.05710 37.90566 3006 ft 214 kts 174°
2026-04-17 13:31 24.04233 37.90758 3008 ft 214 kts 174°
2026-04-17 13:31 24.02750 37.90951 3013 ft 214 kts 174°
2026-04-17 13:32 24.01288 37.91141 3012 ft 214 kts 174°
2026-04-17 13:32 23.99808 37.91334 3008 ft 212 kts 174°
2026-04-17 13:32 23.98414 37.91517 3003 ft 195 kts 174°
2026-04-17 13:32 23.97095 37.91692 3003 ft 187 kts 174°
2026-04-17 13:33 23.95815 37.91816 3007 ft 184 kts 185°
2026-04-17 13:33 23.94665 37.91227 3035 ft 188 kts 214°
2026-04-17 13:33 23.93755 37.90159 3022 ft 198 kts 231°
2026-04-17 13:33 23.93263 37.88723 3018 ft 209 kts 255°
2026-04-17 13:34 23.93407 37.87106 3024 ft 224 kts 282°
2026-04-17 13:34 23.94281 37.85661 3019 ft 237 kts 314°
2026-04-17 13:34 23.95750 37.84807 3027 ft 243 kts 345°
2026-04-17 13:34 23.97417 37.84533 3038 ft 246 kts 352°
2026-04-17 13:35 23.99134 37.84312 3036 ft 250 kts 352°
2026-04-17 13:35 24.00859 37.84090 3033 ft 250 kts 353°
2026-04-17 13:35 24.02573 37.84222 3008 ft 248 kts 25°
2026-04-17 13:35 24.03907 37.85304 3022 ft 236 kts 60°
2026-04-17 13:36 24.04520 37.86886 3028 ft 221 kts 90°
2026-04-17 13:36 24.04411 37.88497 3015 ft 207 kts 116°
2026-04-17 13:36 24.03720 37.89801 3022 ft 195 kts 140°
2026-04-17 13:36 24.02664 37.90693 3021 ft 190 kts 157°
2026-04-17 13:37 24.01420 37.91100 3020 ft 187 kts 174°
2026-04-17 13:37 24.00140 37.91271 3019 ft 187 kts 174°
2026-04-17 13:37 23.98835 37.91450 3010 ft 187 kts 174°
2026-04-17 13:37 23.97548 37.91625 3018 ft 186 kts 174°
2026-04-17 13:38 23.96274 37.91767 3012 ft 186 kts 182°
2026-04-17 13:38 23.95030 37.91347 3031 ft 188 kts 205°
2026-04-17 13:38 23.94004 37.90466 3020 ft 195 kts 224°
2026-04-17 13:38 23.93347 37.89120 3010 ft 205 kts 248°
2026-04-17 13:39 23.93303 37.87538 3020 ft 217 kts 274°
2026-04-17 13:39 23.93980 37.86016 3014 ft 231 kts 305°
2026-04-17 13:39 23.95277 37.84982 3027 ft 242 kts 336°
2026-04-17 13:39 23.96946 37.84597 3040 ft 249 kts 352°
2026-04-17 13:40 23.98675 37.84372 3035 ft 251 kts 352°
2026-04-17 13:40 24.00399 37.84149 3031 ft 250 kts 352°
2026-04-17 13:40 24.02134 37.84087 3007 ft 250 kts 14°
2026-04-17 13:40 24.03618 37.84948 3022 ft 239 kts 52°
2026-04-17 13:41 24.04431 37.86443 3024 ft 224 kts 83°
2026-04-17 13:41 24.04506 37.88069 3015 ft 209 kts 110°
2026-04-17 13:41 24.03959 37.89477 3021 ft 196 kts 134°
2026-04-17 13:41 24.02996 37.90475 3022 ft 189 kts 151°
2026-04-17 13:42 24.01806 37.91035 3015 ft 186 kts 171°
2026-04-17 13:42 24.00523 37.91217 3021 ft 186 kts 174°
2026-04-17 13:42 23.99238 37.91394 3010 ft 186 kts 174°
2026-04-17 13:42 23.97951 37.91570 3010 ft 186 kts 174°
2026-04-17 13:43 23.96668 37.91743 3021 ft 186 kts 175°
2026-04-17 13:43 23.95396 37.91541 3025 ft 187 kts 201°
2026-04-17 13:43 23.94285 37.90788 3021 ft 193 kts 217°
2026-04-17 13:43 23.93483 37.89584 3021 ft 202 kts 240°
2026-04-17 13:44 23.93221 37.88036 3017 ft 214 kts 266°
2026-04-17 13:44 23.93658 37.86450 3016 ft 227 kts 295°
2026-04-17 13:44 23.94790 37.85206 3025 ft 238 kts 325°
2026-04-17 13:44 23.96383 37.84637 3036 ft 245 kts 351°
2026-04-17 13:45 23.98090 37.84407 3033 ft 248 kts 352°
2026-04-17 13:45 23.99807 37.84330 3010 ft 251 kts 14°
2026-04-17 13:45 24.01387 37.85242 3040 ft 266 kts 48°
2026-04-17 13:45 24.02390 37.86891 3024 ft 260 kts 79°
2026-04-17 13:46 24.02479 37.88788 3020 ft 244 kts 108°
2026-04-17 13:46 24.01931 37.90470 3019 ft 236 kts 120°
2026-04-17 13:46 24.01240 37.92119 3012 ft 235 kts 121°
2026-04-17 13:46 24.00543 37.93736 3009 ft 235 kts 121°
2026-04-17 13:47 23.99844 37.95360 3008 ft 236 kts 121°
2026-04-17 13:47 23.99159 37.96960 3001 ft 235 kts 122°
2026-04-17 13:47 23.98460 37.98598 3001 ft 234 kts 122°
2026-04-17 13:47 23.97785 38.00184 3009 ft 233 kts 122°
2026-04-17 13:48 23.97083 38.01828 3022 ft 243 kts 122°
2026-04-17 13:48 23.96368 38.03511 3013 ft 245 kts 121°
2026-04-17 13:48 23.95657 38.05193 3013 ft 243 kts 121°
2026-04-17 13:48 23.94951 38.06861 3022 ft 242 kts 121°
2026-04-17 13:49 23.94241 38.08537 3010 ft 243 kts 121°
2026-04-17 13:49 23.93530 38.10213 3013 ft 241 kts 121°
2026-04-17 13:49 23.92850 38.11845 3017 ft 234 kts 118°
2026-04-17 13:49 23.92574 38.13622 3031 ft 243 kts 98°
2026-04-17 13:50 23.92648 38.15484 3021 ft 247 kts 91°
2026-04-17 13:50 23.93191 38.17311 3040 ft 258 kts 70°
2026-04-17 13:50 23.94104 38.19016 3032 ft 263 kts 62°
2026-04-17 13:50 23.95207 38.20619 3010 ft 262 kts 55°
2026-04-17 13:51 23.96392 38.22098 3029 ft 254 kts 52°
2026-04-17 13:51 23.97607 38.23458 3020 ft 249 kts 49°
2026-04-17 13:51 23.98899 38.24737 3031 ft 249 kts 44°
2026-04-17 13:51 24.00253 38.25902 3030 ft 248 kts 39°
2026-04-17 13:52 24.01670 38.26956 3020 ft 243 kts 35°
2026-04-17 13:52 24.03109 38.27882 3039 ft 236 kts 32°
2026-04-17 13:52 24.04561 38.28707 3058 ft 236 kts 28°
2026-04-17 13:52 24.06052 38.29413 3057 ft 232 kts 22°
2026-04-17 13:53 24.07597 38.29801 3008 ft 224 kts 354°
2026-04-17 13:53 24.08963 38.29199 3028 ft 208 kts 311°
2026-04-17 13:53 24.09657 38.27902 3044 ft 197 kts 282°
2026-04-17 13:53 24.10091 38.26463 3030 ft 200 kts 278°
2026-04-17 13:54 24.10737 38.23487 2927 ft 203 kts 275°
2026-04-17 13:54 24.11061 38.21970 2665 ft 201 kts 276°
2026-04-17 13:55 24.11678 38.19100 2157 ft 186 kts 277°
2026-04-17 13:55 24.11873 38.18191 1992 ft 179 kts 277°
2026-04-17 13:55 24.12402 38.15728 1567 ft 149 kts 278°
2026-04-17 13:56 24.12865 38.13569 1158 ft 144 kts 276°
2026-04-17 13:56 24.13088 38.12505 969 ft 141 kts 279°
2026-04-17 13:56 24.13297 38.11554 823 ft 140 kts 278°
2026-04-17 14:01 24.13306 38.11514 876 ft 140 kts 278°
2026-04-17 14:02 24.13523 38.10469 708 ft 139 kts 280°
2026-04-17 14:02 24.13760 38.09406 423 ft 145 kts 279°
2026-04-17 14:02 24.13984 38.08349 182 ft 141 kts 278°
2026-04-17 14:02 24.14208 38.07327 48 ft 129 kts 278°
2026-04-17 14:03 24.14392 38.06461 39 ft 119 kts 283°
2026-04-17 14:03 24.14659 38.05292 278 ft 183 kts 281°
2026-04-17 14:03 24.15006 38.03859 619 ft 209 kts 281°
2026-04-17 14:03 24.15312 38.02321 1399 ft 206 kts 279°
2026-04-17 14:04 24.15671 38.00772 2155 ft 216 kts 279°
2026-04-17 14:04 24.15964 37.99156 2696 ft 212 kts 261°
2026-04-17 14:04 24.15532 37.97739 2980 ft 193 kts 226°
2026-04-17 14:04 24.14437 37.96905 3009 ft 201 kts 198°
2026-04-17 14:05 24.13064 37.96428 3010 ft 213 kts 194°
2026-04-17 14:05 24.11632 37.95975 3004 ft 214 kts 194°
2026-04-17 14:05 24.10197 37.95572 2992 ft 211 kts 185°
2026-04-17 14:05 24.08788 37.95880 2999 ft 212 kts 153°
2026-04-17 14:06 24.07770 37.97069 3010 ft 223 kts 121°
2026-04-17 14:06 24.07288 37.98706 3010 ft 228 kts 111°
2026-04-17 14:06 24.06911 38.00394 3008 ft 229 kts 111°
2026-04-17 14:06 24.06538 38.02088 3005 ft 230 kts 110°
2026-04-17 14:07 24.06156 38.03795 3000 ft 231 kts 111°
2026-04-17 14:07 24.05781 38.05501 2998 ft 231 kts 110°
2026-04-17 14:07 24.05393 38.07211 2993 ft 231 kts 111°
2026-04-17 14:07 24.05007 38.08895 2992 ft 230 kts 111°
2026-04-17 14:08 24.04617 38.10600 2994 ft 224 kts 111°
2026-04-17 14:08 24.04264 38.12179 2982 ft 211 kts 111°
2026-04-17 14:08 24.03920 38.13745 3001 ft 207 kts 111°
2026-04-17 14:08 24.03586 38.15282 3017 ft 209 kts 111°
2026-04-17 14:09 24.03253 38.16827 2958 ft 211 kts 111°
2026-04-17 14:09 24.02924 38.18360 2820 ft 202 kts 111°
2026-04-17 14:09 24.02617 38.19848 2655 ft 195 kts 101°
2026-04-17 14:09 24.02919 38.21325 2555 ft 213 kts 63°
2026-04-17 14:10 24.04032 38.22410 2523 ft 219 kts 25°
2026-04-17 14:10 24.05458 38.22873 2529 ft 215 kts 14°
2026-04-17 14:10 24.06887 38.23250 2528 ft 208 kts 14°
2026-04-17 14:10 24.08281 38.23575 2494 ft 202 kts
2026-04-17 14:11 24.09599 38.23204 2517 ft 197 kts 322°
2026-04-17 14:11 24.10666 38.22246 2523 ft 200 kts 307°
2026-04-17 14:11 24.11274 38.20947 2479 ft 189 kts 278°
2026-04-17 14:11 24.11584 38.19548 2234 ft 187 kts 277°
2026-04-17 14:12 24.11877 38.18169 1977 ft 186 kts 277°
2026-04-17 14:12 24.12169 38.16803 1736 ft 182 kts 279°
2026-04-17 14:12 24.12456 38.15473 1488 ft 178 kts 278°
2026-04-17 14:13 24.12981 38.13025 1053 ft 151 kts 280°
2026-04-17 14:13 24.13215 38.11941 873 ft 141 kts 278°
2026-04-17 14:13 24.13444 38.10887 676 ft 145 kts 280°
2026-04-17 14:13 24.13679 38.09818 440 ft 141 kts 277°
2026-04-17 14:14 24.13895 38.08761 252 ft 144 kts 277°
2026-04-17 14:14 24.14128 38.07697 66 ft 142 kts 281°
2026-04-17 14:14 24.14339 38.06700 42 ft 112 kts 281°
2026-04-17 14:14 24.14534 38.05803 64 ft 156 kts 282°
2026-04-17 14:15 24.14849 38.04544 908 ft 174 kts 283°
2026-04-17 14:15 24.15185 38.03254 1972 ft 192 kts 280°
2026-04-17 14:15 24.15600 38.01700 2368 ft 230 kts 280°
2026-04-17 14:15 24.16065 37.99958 2793 ft 248 kts 279°
2026-04-17 14:16 24.16338 37.98102 2960 ft 243 kts 259°
2026-04-17 14:16 24.15813 37.96423 3002 ft 232 kts 229°
2026-04-17 14:16 24.14617 37.95358 3020 ft 222 kts 200°
2026-04-17 14:16 24.13144 37.94807 3013 ft 221 kts 194°
2026-04-17 14:17 24.11672 37.94329 3007 ft 222 kts 194°
2026-04-17 14:17 24.10176 37.94078 2993 ft 220 kts 174°
2026-04-17 14:17 24.08765 37.94744 3007 ft 225 kts 143°
2026-04-17 14:17 24.07898 37.96167 2994 ft 236 kts 115°
2026-04-17 14:18 24.07428 37.97921 3001 ft 237 kts 111°
2026-04-17 14:18 24.07018 37.99638 3003 ft 237 kts 111°
2026-04-17 14:18 24.06612 38.01382 3000 ft 237 kts 111°
2026-04-17 14:18 24.06210 38.03132 2997 ft 237 kts 111°
2026-04-17 14:19 24.05814 38.04887 2999 ft 238 kts 110°
2026-04-17 14:19 24.05405 38.06646 2991 ft 238 kts 111°
2026-04-17 14:19 24.04998 38.08389 2995 ft 238 kts 111°
2026-04-17 14:19 24.04577 38.10168 3008 ft 244 kts 111°
2026-04-17 14:20 24.04144 38.11975 2900 ft 248 kts 111°
2026-04-17 14:20 24.03691 38.13832 2774 ft 254 kts 111°
2026-04-17 14:20 24.03242 38.15658 2615 ft 241 kts 110°
2026-04-17 14:20 24.02809 38.17366 2521 ft 225 kts 111°
2026-04-17 14:21 24.02421 38.18947 2508 ft 206 kts 107°
2026-04-17 14:21 24.02544 38.20474 2527 ft 208 kts 71°
2026-04-17 14:21 24.03494 38.21663 2512 ft 210 kts 33°
2026-04-17 14:21 24.04843 38.22169 2524 ft 202 kts 15°
2026-04-17 14:22 24.06202 38.22525 2520 ft 201 kts 14°
2026-04-17 14:22 24.07567 38.22882 2526 ft 204 kts 14°
2026-04-17 14:22 24.08957 38.23239 2513 ft 205 kts 11°
2026-04-17 14:22 24.10339 38.23098 2500 ft 200 kts 327°
2026-04-17 14:23 24.11175 38.22013 2514 ft 182 kts 277°
2026-04-17 14:23 24.11342 38.20658 2407 ft 186 kts 274°
2026-04-17 14:23 24.11632 38.19264 2188 ft 185 kts 278°
2026-04-17 14:23 24.11936 38.17910 1947 ft 183 kts 277°
2026-04-17 14:24 24.12225 38.16541 1700 ft 191 kts 278°
2026-04-17 14:24 24.12529 38.15133 1437 ft 181 kts 279°
2026-04-17 14:24 24.12806 38.13854 1212 ft 164 kts 277°
2026-04-17 14:24 24.13053 38.12695 994 ft 148 kts 280°
2026-04-17 14:25 24.13288 38.11610 811 ft 143 kts 278°
2026-04-17 14:25 24.13520 38.10540 615 ft 145 kts 279°
2026-04-17 14:25 24.13746 38.09480 399 ft 142 kts 279°
2026-04-17 14:25 24.13970 38.08420 194 ft 145 kts 277°
2026-04-17 14:26 24.14198 38.07364 49 ft 137 kts 279°
2026-04-17 14:26 24.14404 38.06394 38 ft 122 kts 282°
2026-04-17 14:26 24.14547 38.05746 36 ft 68 kts 283°
2026-04-17 14:26 24.14642 38.05301 36 ft 51 kts 283°